Location: Mascot Post Office (historical)
(40.2645°N, 99.5462°W)
Time: 00:02:13
(UTC+00:00)

Cosmos 2333 Rocket - Visible Passes

Search period start: 25 October 2020 00:00
Search period end: 04 November 2020 00:00
Orbit: 839 x 862 km, 70.8° (Epoch: 24 October)

Date Brightness Start Highest point End Pass type
(mag) Time Alt. Az. Time Alt. Az. Time Alt. Az.
29 Oct 4.6 12:34:10 10° N 12:38:08 19° NE 12:42:04 10° E visible
30 Oct 4.6 12:21:51 10° N 12:25:49 19° NE 12:29:45 10° E visible
31 Oct 4.6 12:09:32 10° N 12:13:29 19° NE 12:17:25 10° E visible
01 Nov 4.6 11:57:13 10° N 12:01:11 19° NE 12:05:06 10° E visible
02 Nov 4.6 11:44:54 10° N 11:48:51 19° NE 11:52:46 10° E visible
03 Nov 4.6 11:32:35 10° N 11:36:32 19° NE 11:40:27 10° E visible
